sat.trackr.live / text

‹ back to catalog

ONEWEB-0425

NORAD 51628 · 2022-012G

PAYLOAD ACTIVE UNKNOWN

§ Identity

Operator
Country
UK
Launch date
2022-02-10
Launch site
FRGUI
Launch vehicle
Mass (kg)
RCS (m²)

Purposes: comms

External: N2YO · Heavens-Above · Gunter

§ Orbital elements

Epoch: 2026-05-25T02:58:34.760352Z

Period
109.89 min
Inclination
87.8854°
Eccentricity
0.0002135
Mean motion
13.10373653 rev/d
Perigee alt
1,220.1 km
Apogee alt
1,223.3 km
Semi-major
7,599.9 km
B*
-1.7393e-3
RAAN
40.8582°
Arg perigee
83.6669°
Mean anomaly
276.4702°
Rev number
20,630

§ Raw data

ONEWEB-04251 51628U 22012G   26145.12401343 -.00000594  00000+0 -17393-2 0  99992 51628  87.8854  40.8582 0002135  83.6669 276.4702 13.10373653206301

JSON: /api/v1/satellites/51628 · /tle

For live sub-satellite position, see the globe view (requires WebGL).

§ Visibility from observer

Set your observer location to see the next 7 days of passes ≥ 10°. The values pass through the URL so the page stays shareable.

No JS? Fill the form by hand. The geolocation button needs JavaScript.